Weather History for Howell, MI

Change the Weather History Date:

Wednesday, January 29, 2014

  Actual Average Record
Temperature  
Mean Temperature 6 °F -  
Max Temperature 15 °F 31 °F 58 °F (2013)
Min Temperature -4 °F 17 °F -4 °F (2014)
Degree Days  
Heating Degree Days 60    
Moisture  
Dew Point -2 °F    
Average Humidity 69    
Maximum Humidity 79    
Minimum Humidity 55    
Precipitation  
Precipitation 0.00 in - - ()
Sea Level Pressure  
Sea Level Pressure 30.06 in    
Wind  
Wind Speed 12 mph (SW)    
Max Wind Speed 21 mph    
Max Gust Speed 29 mph    
Visibility 9 miles    
Events      
Averages and records for this station are not official NWS values.
T = Trace of Precipitation, MM = Missing Value Source: NWS Daily Summary

Daily Weather History Graph

Daily Weather History Graph

Search for Another Location

Airport:

Trip Planner

Search our weather history database for the weather conditions in past years. The results will help you decide how hot, cold, wet, or windy it might be!

Date:

Astronomy

Jan. 29, 2014 Rise Set
Actual Time 7:53 AM EST 5:45 PM EST
Civil Twilight 7:22 AM EST 6:15 PM EST
Nautical Twilight 6:49 AM EST 6:49 PM EST
Astronomical Twilight 6:15 AM EST 7:22 PM EST
Moon 6:29 AM EST (1/29) 4:44 PM EST (1/29)
Length of Visible Light 10h 52m
Length of Day
9h 52m
Waning Crescent, 2% of the Moon is Illuminated
Jan 29
Waning Crescent
Jan 30
New
Feb 6
First Quarter
Feb 14
Full
Feb 22
Last Quarter

Hourly Weather History & Observations

Time (EST) Temp. Windchill Dew Point Humidity Pressure Visibility Wind Dir Wind Speed Gust Speed Precip Events Conditions
12:16 AM -4.0 °F -22.1 °F -11.2 °F 71% 30.10 in 10.0 mi SW 11.5 mph - N/A   Clear
12:35 AM -4.2 °F -19.3 °F -11.2 °F 72% 30.10 in 10.0 mi SW 8.1 mph - N/A   Clear
12:55 AM -4.4 °F -21.6 °F -11.0 °F 73% 30.09 in 10.0 mi SW 10.4 mph - N/A   Clear
1:16 AM -4.2 °F -21.4 °F -10.5 °F 74% 30.08 in 10.0 mi SW 10.4 mph - N/A   Clear
1:35 AM -4.0 °F -21.2 °F -10.1 °F 75% 30.07 in 10.0 mi SW 10.4 mph - N/A   Clear
1:55 AM -3.6 °F -20.7 °F -9.4 °F 76% 30.06 in 10.0 mi SW 10.4 mph 16.1 mph N/A   Clear
2:16 AM -3.3 °F -20.3 °F -8.7 °F 78% 30.06 in 10.0 mi SW 10.4 mph - N/A   Clear
2:35 AM -3.1 °F -19.1 °F -8.3 °F 78% 30.05 in 10.0 mi SW 9.2 mph - N/A   Clear
2:55 AM -2.2 °F -19.9 °F -7.6 °F 78% 30.05 in 10.0 mi SW 11.5 mph 18.4 mph N/A   Clear
3:15 AM -1.8 °F -21.0 °F -7.2 °F 78% 30.05 in 10.0 mi SW 13.8 mph - N/A   Scattered Clouds
3:35 AM -1.5 °F -20.5 °F -6.7 °F 78% 30.05 in 10.0 mi SW 13.8 mph - N/A   Scattered Clouds
3:55 AM -0.9 °F -19.1 °F -6.2 °F 79% 30.04 in 10.0 mi SW 12.7 mph 19.6 mph N/A   Scattered Clouds
4:15 AM -0.8 °F -18.9 °F -6.0 °F 79% 30.03 in 10.0 mi SW 12.7 mph - N/A   Mostly Cloudy
4:35 AM -0.6 °F -16.9 °F -5.8 °F 79% 30.03 in 10.0 mi SW 10.4 mph 17.3 mph N/A   Overcast
4:55 AM -0.0 °F -18.0 °F -5.3 °F 79% 30.02 in 10.0 mi SW 12.7 mph 16.1 mph N/A   Overcast
5:15 AM 0.5 °F -18.7 °F -4.9 °F 78% 30.02 in 10.0 mi SW 15.0 mph - N/A   Scattered Clouds
5:35 AM 1.0 °F -18.0 °F -4.4 °F 78% 30.02 in 10.0 mi SW 15.0 mph - N/A   Clear
5:55 AM 0.5 °F -16.5 °F -4.9 °F 78% 30.02 in 10.0 mi SW 11.5 mph 19.6 mph N/A   Scattered Clouds
6:15 AM 0.5 °F -16.5 °F -4.9 °F 78% 30.02 in 10.0 mi SW 11.5 mph 17.3 mph N/A   Scattered Clouds
6:35 AM 0.5 °F -16.5 °F -4.9 °F 78% 30.02 in 10.0 mi SW 11.5 mph 19.6 mph N/A   Scattered Clouds
6:55 AM 0.3 °F -17.5 °F -4.9 °F 79% 30.02 in 10.0 mi SW 12.7 mph 18.4 mph N/A   Scattered Clouds
7:15 AM 0.3 °F -18.3 °F -4.9 °F 79% 30.02 in 10.0 mi SW 13.8 mph - N/A   Clear
7:35 AM 0.9 °F -16.8 °F -4.4 °F 79% 30.02 in 10.0 mi SW 12.7 mph 18.4 mph N/A   Scattered Clouds
7:55 AM 1.4 °F -16.9 °F -4.0 °F 78% 30.02 in 10.0 mi SW 13.8 mph 19.6 mph N/A   Mostly Cloudy
8:15 AM 1.8 °F -15.7 °F -4.0 °F 77% 30.03 in 10.0 mi SW 12.7 mph 18.4 mph N/A   Overcast
8:35 AM 2.3 °F -15.7 °F -3.5 °F 77% 30.03 in 10.0 mi SW 13.8 mph 20.7 mph N/A   Overcast
8:55 AM 2.8 °F -14.3 °F -3.1 °F 76% 30.03 in 7.0 mi SW 12.7 mph 19.6 mph N/A   Overcast
9:15 AM 3.4 °F -12.9 °F -2.6 °F 76% 30.03 in 10.0 mi SW 11.5 mph - N/A   Overcast
9:35 AM 3.9 °F -14.3 °F -2.4 °F 75% 30.03 in 7.0 mi SW 15.0 mph 21.9 mph N/A   Overcast
9:55 AM 5.0 °F -13.0 °F -1.8 °F 73% 30.04 in 7.0 mi WSW 15.0 mph 19.6 mph N/A   Overcast
10:15 AM 6.4 °F -11.1 °F -0.6 °F 73% 30.05 in 7.0 mi WSW 15.0 mph 24.2 mph N/A   Overcast
10:35 AM 7.5 °F -10.3 °F 0.3 °F 72% 30.04 in 5.0 mi WSW 16.1 mph 20.7 mph N/A   Haze
10:55 AM 8.6 °F -8.3 °F 1.2 °F 72% 30.05 in 5.0 mi WSW 15.0 mph 21.9 mph N/A   Haze
11:15 AM 9.1 °F -9.3 °F 1.4 °F 71% 30.05 in 4.0 mi WSW 18.4 mph 25.3 mph N/A   Haze
11:35 AM 10.0 °F -9.1 °F 1.9 °F 70% 30.05 in 3.0 mi WSW 20.7 mph 28.8 mph N/A   Haze
11:55 AM 10.4 °F -6.6 °F 1.9 °F 69% 30.05 in 5.0 mi WSW 16.1 mph 26.5 mph N/A   Haze
12:15 PM 11.3 °F -6.0 °F 3.0 °F 69% 30.05 in 4.0 mi WSW 17.3 mph 25.3 mph N/A   Haze
12:35 PM 11.1 °F -7.7 °F 2.7 °F 69% 30.05 in 4.0 mi WSW 20.7 mph 26.5 mph N/A   Haze
12:55 PM 11.7 °F -6.0 °F 2.8 °F 68% 30.05 in 5.0 mi WSW 18.4 mph 25.3 mph N/A   Haze
1:15 PM 12.6 °F -4.4 °F 3.4 °F 67% 30.04 in 5.0 mi SW 17.3 mph 20.7 mph N/A   Haze
1:35 PM 13.3 °F -2.4 °F 3.7 °F 66% 30.03 in 7.0 mi SW 15.0 mph 24.2 mph N/A   Clear
1:55 PM 13.8 °F -3.2 °F 4.3 °F 66% 30.03 in 5.0 mi SW 18.4 mph 26.5 mph N/A   Haze
2:15 PM 14.5 °F -2.3 °F 4.5 °F 64% 30.04 in 10.0 mi WSW 18.4 mph 24.2 mph N/A   Clear
2:35 PM 14.7 °F -2.0 °F 4.8 °F 65% 30.04 in 5.0 mi WSW 18.4 mph 25.3 mph N/A   Haze
2:55 PM 14.9 °F -1.8 °F 4.5 °F 63% 30.04 in 10.0 mi WSW 18.4 mph 23.0 mph N/A   Clear
3:15 PM 15.3 °F -0.4 °F 4.5 °F 62% 30.05 in 10.0 mi WSW 16.1 mph 23.0 mph N/A   Clear
3:35 PM 15.3 °F 2.0 °F 4.8 °F 63% 30.06 in 7.0 mi SW 11.5 mph 23.0 mph N/A   Clear
3:55 PM 15.8 °F 0.9 °F 5.0 °F 62% 30.07 in 10.0 mi WSW 15.0 mph 20.7 mph N/A   Clear
4:15 PM 15.8 °F 1.4 °F 4.8 °F 62% 30.07 in 10.0 mi SW 13.8 mph 21.9 mph N/A   Clear
4:35 PM 15.8 °F 0.9 °F 4.8 °F 62% 30.08 in 10.0 mi WSW 15.0 mph 20.7 mph N/A   Clear
4:55 PM 15.6 °F 1.8 °F 3.9 °F 60% 30.09 in 10.0 mi SW 12.7 mph 17.3 mph N/A   Clear
5:15 PM 15.1 °F 1.8 °F 3.2 °F 59% 30.09 in 10.0 mi SW 11.5 mph - N/A   Clear
5:35 PM 14.2 °F 1.4 °F 2.5 °F 60% 30.09 in 10.0 mi SW 10.4 mph - N/A   Clear
5:55 PM 13.8 °F 1.0 °F 2.3 °F 60% 30.10 in 10.0 mi SW 10.4 mph - N/A   Clear
6:15 PM 13.1 °F 0.1 °F 1.8 °F 61% 30.11 in 10.0 mi SW 10.4 mph - N/A   Clear
6:35 PM 12.6 °F -0.6 °F 1.2 °F 61% 30.11 in 10.0 mi SW 10.4 mph 16.1 mph N/A   Clear
6:55 PM 12.2 °F -1.0 °F -0.0 °F 58% 30.11 in 10.0 mi SSW 10.4 mph - N/A   Clear
7:15 PM 11.7 °F -0.9 °F -1.3 °F 56% 30.12 in 10.0 mi SSW 9.2 mph - N/A   Clear
7:35 PM 11.1 °F -0.6 °F -2.2 °F 55% 30.11 in 10.0 mi SSW 8.1 mph - N/A   Clear
7:55 PM 10.6 °F -1.3 °F -2.6 °F 56% 30.12 in 10.0 mi SSW 8.1 mph - N/A   Clear
8:15 PM 10.4 °F -2.4 °F -2.7 °F 55% 30.12 in 10.0 mi SSW 9.2 mph - N/A   Clear
8:36 PM 10.2 °F -1.7 °F -2.6 °F 56% 30.13 in 10.0 mi SSW 8.1 mph - N/A   Clear
8:55 PM 10.2 °F -1.7 °F -2.4 °F 57% 30.12 in 10.0 mi South 8.1 mph - N/A   Clear
9:15 PM 9.7 °F -1.3 °F -2.2 °F 59% 30.11 in 10.0 mi South 6.9 mph - N/A   Clear
9:36 PM 10.2 °F -3.5 °F -1.7 °F 59% 30.11 in 10.0 mi South 10.4 mph - N/A   Clear
9:55 PM 10.0 °F -3.7 °F -1.3 °F 60% 30.10 in 10.0 mi South 10.4 mph - N/A   Clear
10:15 PM 10.2 °F -2.7 °F -0.6 °F 62% 30.10 in 10.0 mi SSW 9.2 mph - N/A   Clear
10:35 PM 10.4 °F -2.4 °F -0.4 °F 62% 30.10 in 10.0 mi SSW 9.2 mph - N/A   Clear
10:55 PM 11.1 °F -2.4 °F 0.3 °F 62% 30.09 in 10.0 mi SSW 10.4 mph 16.1 mph N/A   Clear
11:15 PM 11.7 °F -1.7 °F 0.5 °F 61% 30.09 in 10.0 mi SSW 10.4 mph 16.1 mph N/A   Clear
11:35 PM 11.7 °F -0.9 °F 0.5 °F 61% 30.08 in 10.0 mi SSW 9.2 mph - N/A   Clear
11:55 PM 12.0 °F -0.4 °F 1.4 °F 62% 30.08 in 10.0 mi SSW 9.2 mph 17.3 mph N/A   Clear